Location: Antioch Baptist Church
(32.6696°N, 85.7327°W)
Time: 12:03:36
(UTC+00:00)

Cosmos 1697 Rocket - Pass Details

Date: 14 July 2020
Orbit: 834 x 842 km, 71.0° (Epoch: 09 August)

Event Time Altitude Azimuth Distance (km) Brightness Sun altitude
Rises 09:00:13 0° 327° (NNW) 3,386 6.0 -19.1°
Reaches altitude 10° 09:02:52 10° 318° (NW) 2,447 5.1 -18.7°
Maximum altitude 09:07:47 32° 257° (WSW) 1,388 3.4 -17.9°
Enters shadow 09:08:50 30° 236° (SW) 1,452 3.3 -17.7°
